When you browse on this site, cookies collect data to enhance your experience and personalize the content and advertising you see.
Visit our Privacy Policy to learn more. By continuing to use the site, you agree to this use of cookies and data.
  • In Czech Republic
  • List of Countries
  • For 7 days
  • Water Temperature
  • Weather Map
  • Weather Widgets
  • user-avatar
    Login

    Hourly Weather Frankfurt am Mein

    Today, 18 February, Tuesday

    Time Temperature Precipitation Wind Pressure Humidity
    00:00 +2°C° 0.1 mm 5 mps 723 mmHg 80%
    01:00 +4°C° 0 mm 4 mps 724 mmHg 78%
    02:00 +3°C° 0 mm 4 mps 724 mmHg 78%
    03:00 +2°C° 0 mm 5 mps 724 mmHg 78%
    04:00 +2°C° 0 mm 5 mps 724 mmHg 77%
    05:00 +2°C° 0 mm 5 mps 725 mmHg 76%
    06:00 +2°C° 0 mm 5 mps 725 mmHg 76%
    07:00 +2°C° 0 mm 5 mps 726 mmHg 75%
    08:00 +2°C° 0 mm 6 mps 726 mmHg 73%
    09:00 +2°C° 0 mm 6 mps 727 mmHg 72%
    10:00 +2°C° 0 mm 6 mps 727 mmHg 71%
    11:00 +2°C° 0 mm 6 mps 727 mmHg 69%
    12:00 +3°C° 0 mm 6 mps 727 mmHg 67%
    13:00 +3°C° 0 mm 6 mps 727 mmHg 66%
    14:00 +3°C° 0 mm 6 mps 727 mmHg 67%
    15:00 +3°C° 0 mm 6 mps 726 mmHg 68%
    16:00 +3°C° 0 mm 6 mps 726 mmHg 68%
    17:00 +2°C° 0 mm 5 mps 726 mmHg 71%
    18:00 +3°C° 0 mm 4 mps 726 mmHg 74%
    19:00 +1°C° 0 mm 4 mps 725 mmHg 77%
    20:00 +1°C° 0 mm 4 mps 725 mmHg 78%
    21:00 +1°C° 0 mm 4 mps 725 mmHg 80%
    22:00 +1°C° 0 mm 4 mps 724 mmHg 81%
    23:00 +1°C° 0 mm 4 mps 724 mmHg 81%

    Tomorrow, 19 February, Wednesday

    Time Temperature Precipitation Wind Pressure Humidity
    00:00 +1°C° 0 mm 4 mps 723 mmHg 81%
    01:00 +2°C° 0 mm 5 mps 723 mmHg 82%
    02:00 +2°C° 0.1 mm 5 mps 722 mmHg 83%
    03:00 +2°C° 0.1 mm 5 mps 721 mmHg 84%
    04:00 +2°C° 0.1 mm 6 mps 720 mmHg 85%
    05:00 +1°C° 0.3 mm 6 mps 720 mmHg 86%
    06:00 0°C° 0.3 mm 7 mps 720 mmHg 88%
    07:00 0°C° 0.3 mm 7 mps 720 mmHg 89%
    08:00 0°C° 0.1 mm 7 mps 721 mmHg 82%
    09:00 0°C° 0.1 mm 7 mps 722 mmHg 75%
    10:00 +1°C° 0.1 mm 6 mps 722 mmHg 68%
    11:00 +1°C° 0.1 mm 6 mps 723 mmHg 65%
    12:00 +2°C° 0.1 mm 6 mps 724 mmHg 62%
    13:00 +2°C° 0.1 mm 6 mps 724 mmHg 59%
    14:00 +2°C° 0 mm 6 mps 725 mmHg 59%
    15:00 +2°C° 0 mm 5 mps 725 mmHg 59%
    16:00 +2°C° 0 mm 5 mps 725 mmHg 59%
    17:00 +1°C° 0 mm 4 mps 725 mmHg 63%
    18:00 +1°C° 0 mm 3 mps 725 mmHg 68%
    19:00 +1°C° 0 mm 2 mps 725 mmHg 72%
    20:00 0°C° 0 mm 3 mps 725 mmHg 74%
    21:00 0°C° 0 mm 3 mps 725 mmHg 76%
    22:00 0°C° 0 mm 3 mps 725 mmHg 78%
    23:00 0°C° 0 mm 3 mps 725 mmHg 80%

    Day after tomorrow, 20 February, Thursday

    Time Temperature Precipitation Wind Pressure Humidity
    00:00 0°C° 0 mm 3 mps 725 mmHg 82%
    01:00 0°C° 0 mm 3 mps 724 mmHg 85%
    02:00 +1°C° 0 mm 3 mps 724 mmHg 86%
    03:00 +1°C° 0 mm 3 mps 724 mmHg 87%
    04:00 +2°C° 0 mm 3 mps 723 mmHg 88%
    05:00 +2°C° 0 mm 3 mps 723 mmHg 88%
    06:00 +2°C° 0 mm 3 mps 723 mmHg 89%
    07:00 +2°C° 0 mm 3 mps 723 mmHg 89%
    08:00 +3°C° 0 mm 3 mps 723 mmHg 87%
    09:00 +3°C° 0 mm 4 mps 723 mmHg 85%
    10:00 +4°C° 0 mm 4 mps 723 mmHg 83%
    11:00 +4°C° 0 mm 4 mps 723 mmHg 79%
    12:00 +5°C° 0 mm 4 mps 723 mmHg 75%
    13:00 +6°C° 0 mm 5 mps 722 mmHg 71%
    14:00 +6°C° 0 mm 4 mps 722 mmHg 70%
    15:00 +6°C° 0 mm 4 mps 721 mmHg 68%
    16:00 +6°C° 0 mm 4 mps 721 mmHg 67%
    17:00 +5°C° 0 mm 4 mps 721 mmHg 69%
    18:00 +5°C° 0 mm 4 mps 720 mmHg 71%
    19:00 +5°C° 0 mm 4 mps 720 mmHg 73%
    20:00 +5°C° 0 mm 5 mps 720 mmHg 73%
    21:00 +5°C° 0 mm 5 mps 719 mmHg 73%
    22:00 +4°C° 0 mm 6 mps 719 mmHg 73%
    23:00 +3°C° 0.5 mm 6 mps 719 mmHg 73%

    21 February, Friday

    Time Temperature Precipitation Wind Pressure Humidity
    00:00 +2°C° 0.5 mm 7 mps 720 mmHg 74%
    01:00 +2°C° 0.5 mm 7 mps 720 mmHg 74%
    02:00 +1°C° 0.2 mm 6 mps 721 mmHg 72%
    03:00 -1°C° 0.2 mm 6 mps 723 mmHg 71%
    04:00 -1°C° 0.2 mm 5 mps 724 mmHg 70%
    05:00 -1°C° 0 mm 5 mps 725 mmHg 71%
    06:00 -2°C° 0 mm 5 mps 726 mmHg 73%
    07:00 -2°C° 0 mm 4 mps 727 mmHg 74%
    14:00 +3°C° 0 mm 5 mps 730 mmHg 57%
    15:00 +3°C° 0 mm 5 mps 730 mmHg 57%
    16:00 +4°C° 0 mm 4 mps 730 mmHg 58%
    17:00 +3°C° 0 mm 4 mps 730 mmHg 63%
    18:00 +1°C° 0 mm 4 mps 730 mmHg 67%
    19:00 +2°C° 0 mm 3 mps 730 mmHg 72%
    20:00 +1°C° 0 mm 3 mps 730 mmHg 74%
    21:00 +1°C° 0 mm 3 mps 731 mmHg 75%
    22:00 0°C° 0 mm 4 mps 731 mmHg 77%
    23:00 0°C° 0 mm 4 mps 731 mmHg 79%

    22 February, Saturday

    Time Temperature Precipitation Wind Pressure Humidity
    00:00 0°C° 0 mm 4 mps 730 mmHg 81%
    01:00 -1°C° 0 mm 4 mps 730 mmHg 82%
    02:00 -1°C° 0 mm 4 mps 730 mmHg 83%
    03:00 -1°C° 0 mm 4 mps 730 mmHg 83%
    04:00 -1°C° 0 mm 4 mps 729 mmHg 84%
    05:00 -1°C° 0 mm 4 mps 729 mmHg 84%
    06:00 -1°C° 0 mm 4 mps 729 mmHg 84%
    07:00 -1°C° 0 mm 4 mps 729 mmHg 84%
    08:00 0°C° 0 mm 4 mps 729 mmHg 79%
    09:00 +1°C° 0 mm 5 mps 729 mmHg 75%
    10:00 +2°C° 0 mm 5 mps 729 mmHg 71%
    11:00 +3°C° 0 mm 6 mps 729 mmHg 65%
    12:00 +4°C° 0 mm 6 mps 729 mmHg 60%
    13:00 +5°C° 0 mm 6 mps 729 mmHg 55%
    14:00 +5°C° 0 mm 6 mps 728 mmHg 55%
    15:00 +7°C° 0 mm 6 mps 728 mmHg 55%
    16:00 +7°C° 0 mm 5 mps 728 mmHg 55%
    17:00 +5°C° 0 mm 6 mps 728 mmHg 59%
    18:00 +5°C° 0 mm 6 mps 728 mmHg 63%
    19:00 +5°C° 0 mm 6 mps 728 mmHg 67%
    20:00 +5°C° 0 mm 6 mps 728 mmHg 70%
    21:00 +5°C° 0 mm 6 mps 728 mmHg 73%
    22:00 +5°C° 0 mm 6 mps 728 mmHg 76%
    23:00 +5°C° 0 mm 6 mps 728 mmHg 77%

    23 February, Sunday

    Time Temperature Precipitation Wind Pressure Humidity
    00:00 +5°C° 0 mm 6 mps 728 mmHg 78%
    01:00 +5°C° 0 mm 6 mps 728 mmHg 79%
    02:00 +5°C° 0 mm 6 mps 728 mmHg 79%
    03:00 +7°C° 0 mm 6 mps 727 mmHg 80%
    04:00 +7°C° 0 mm 6 mps 727 mmHg 80%
    05:00 +7°C° 0.1 mm 6 mps 728 mmHg 82%
    06:00 +7°C° 0.1 mm 6 mps 728 mmHg 83%
    07:00 +7°C° 0.1 mm 6 mps 728 mmHg 84%
    08:00 +7°C° 0.2 mm 6 mps 728 mmHg 85%
    09:00 +7°C° 0.2 mm 6 mps 728 mmHg 85%
    10:00 +7°C° 0.2 mm 6 mps 728 mmHg 86%
    11:00 +7°C° 0.2 mm 6 mps 728 mmHg 84%
    12:00 +8°C° 0.2 mm 6 mps 728 mmHg 82%
    13:00 +8°C° 0.2 mm 6 mps 728 mmHg 80%
    14:00 +9°C° 0 mm 6 mps 728 mmHg 79%
    15:00 +9°C° 0 mm 6 mps 727 mmHg 79%
    16:00 +9°C° 0 mm 6 mps 727 mmHg 78%
    17:00 +9°C° 0 mm 5 mps 727 mmHg 79%
    18:00 +9°C° 0 mm 5 mps 727 mmHg 80%
    19:00 +8°C° 0 mm 5 mps 727 mmHg 81%
    20:00 +8°C° 0 mm 5 mps 727 mmHg 82%
    21:00 +8°C° 0 mm 5 mps 727 mmHg 82%
    22:00 +8°C° 0 mm 5 mps 727 mmHg 83%
    23:00 +8°C° 0 mm 5 mps 727 mmHg 84%
    Show more